Preview of NWS' New Version of Forecast
This preview is not operational and should not be used for support decisions.

Regional Weather Roundup (RWR)

Issued by National Weather Service (NWS)

                            
000
ASUS42 KTBW 171316
RWRFL 
FLORIDA REGIONAL WEATHER ROUNDUP
NATIONAL WEATHER SERVICE TAMPA BAY RUSKIN FL
900 AM EDT FRI MAY 17 2019

NOTE: "FAIR" INDICATES FEW OR NO CLOUDS BELOW 12,000 FEET WITH NO
SIGNIFICANT WEATHER AND/OR OBSTRUCTIONS TO VISIBILITY.

FLZ001>010-012>015-112-114-115-171400-
PANHANDLE FLORIDA
  
CITY           SKY/WX    TMP DP  RH WIND       PRES   REMARKS
PENSACOLA      FAIR      75  70  84 N6        30.03R                  
PENSACOLA NAS  FAIR      75  70  84 CALM      30.03R                  
MILTON NAS     FAIR      73  66  78 CALM      30.04R                  
CRESTVIEW      FAIR      71  63  75 CALM      30.06R                  
DUKE FIELD     FAIR      73  65  74 CALM      30.04R                  
VALPARAISO     FAIR      73  65  77 N3        30.03R                  
MARY ESTHER    FAIR      73  67  80 CALM      30.02R                  
PANAMA CITY    FAIR      75  67  76 CALM      30.04R                  
TYNDALL AFB    FAIR      74  69  82 N5        30.04R                  
APALACHICOLA   FAIR      75  64  68 NE7       30.05R                  

STATION/POSITION SKY/WX   TEMP    WIND        PRES    WAVE   SWELL
                          AIR SEA DIR/SP/G            HT/PER HT/PER
                          (F)     (DEG/KT/KT) (MB)    (FT/S) (FT/S)
30.1N   87.6W                                   N/A     1
29.2N   88.2W                     110/  8/ 10 1016.9R   1/ 8   2/ 8
PANAMA CITY BEAC           73 77   20/  5/  7 1017.8R
TOWER C          NOT AVBL

$$
FLZ011-016>038-118-127-128-134-139-239-171400-
NORTH FLORIDA
  
CITY           SKY/WX    TMP DP  RH WIND       PRES   REMARKS
TALLAHASSEE    FAIR      73  61  65 SE3       30.06R                  
PERRY          FAIR      74  68  81 CALM      30.07R                  
LIVE OAK       SUNNY     73  66  78 CALM      30.07R                  
CROSS CITY     FAIR      75  66  73 S8        30.06R                  
LAKE CITY      FAIR      72  63  73 SW5       30.08R                  
GAINESVILLE    FAIR      76  63  64 S5        30.09R                  
WILLISTON      FAIR      73  65  74 S3        30.06S                  
PALATKA        PTSUNNY  N/A N/A N/A CALM      30.07R                  
MAYPORT NAS    FAIR      77  63  61 SW9       30.07R                  
JACKSONVILLE   FAIR      75  62  64 S8        30.06R                  
JAX NAS        FAIR      76  60  57 SW8       30.07R                  
JAX CECIL      SUNNY     75  64  69 S5        30.07R                  
FERNANDINA BEA FAIR      75  64  68 SW10      30.07R                  
ST AUGUSTINE   FAIR      75  65  70 SW7       30.08                   

STATION/POSITION SKY/WX   TEMP    WIND        PRES    WAVE   SWELL
                          AIR SEA DIR/SP/G            HT/PER HT/PER
                          (F)     (DEG/KT/KT) (MB)    (FT/S) (FT/S)
SHELL POINT      NOT AVBL
KEATON BEACH               78     180/ 10/ 11 1018.1R
CEDAR KEY                  76     180/ 10/ 11 1017.2R
FERNANDINA                 78 78  200/  5/  9 1018.7R
30.7N   81.3W                 77                N/A     3/ 4   2/17
MAYPORT                    74 78  230/  8/ 11 1018.3R
31.4N   80.9W              75 75  230/ 16/ 19 1017.5R   4/ 5   2/14
ST AUGUSTINE               76 78  220/  6/  8 1018.7R

$$
FLZ040-043>046-052-053-057-058-063-144-171400-
INTERIOR CENTRAL FLORIDA
  
CITY           SKY/WX    TMP DP  RH WIND       PRES   REMARKS
OCALA          FAIR      74  64  71 S6        30.07R                  
LEESBURG       FAIR      75  63  66 S8        30.07R                  
SANFORD        FAIR      75  65  70 VRB5      30.07R                  
ORLANDO EXEC   FAIR      75  62  64 S7        30.06S                  
ORLANDO INTL   FAIR      75  62  64 SE6       30.06S                  
KISSIMMEE      FAIR      75  65  70 CALM      30.07S                  
WINTER HAVEN   FAIR      76  64  66 SE8       30.07R                  
LAKELAND       SUNNY     73  63  68 SE7       30.07R                  
SEBRING        FAIR      73  65  76 E3        30.06S                  
OKEECHOBEE     FAIR      73  64  73 CALM      30.05R                  

$$
FLZ041-047-054-059-064-141-147-171400-
EAST CENTRAL FLORIDA
  
CITY           SKY/WX    TMP DP  RH WIND       PRES   REMARKS
ORMOND BEACH   MOSUNNY   73  64  73 CALM      30.07R                  
DAYTONA BEACH  FAIR      74  66  76 S3        30.07R                  
DELAND         PTSUNNY   75  63  64 S5        30.07R                  
NEW SMYRNA BEA MOSUNNY   73  64  73 W5        30.08R                  
JFK SPACE CTR  FAIR      74  67  76 CALM      30.06R                  
TITUSVILLE     MOSUNNY   75  64  69 CALM      30.07R                  
CAPE CANAVERAL FAIR      76  59  54 CALM      30.05R                  
PATRICK AFB    FAIR      76  67  73 CALM      30.05S                  
MELBOURNE      FAIR      78  64  61 CALM      30.05S                  
VERO BEACH     FAIR      78  65  63 VRB6      30.05S                  
FT PIERCE      FAIR      78  64  61 E6        30.05R                  
STUART         MOSUNNY   79  63  57 E7        30.05S                  

STATION/POSITION SKY/WX   TEMP    WIND        PRES    WAVE   SWELL
                          AIR SEA DIR/SP/G            HT/PER HT/PER
                          (F)     (DEG/KT/KT) (MB)    (FT/S) (FT/S)
28.5N   80.2W              77     140/  6/  6 1018.2R   3/ 9   2/ 9
28.9N   78.5W              75 77  120/  4/  6 1018.7R   3/14   3/14
TRIDENT PIER               75 79  300/  2/  3 1019.2R
28.4N   80.5W                 77                N/A     2/14   2/14
27.5N   80.2W                 78                N/A     3/14   2/14

$$
FLZ050-056-061-142-242-148-248-149-249-151-251-155-255-
160-260-171400-
WEST CENTRAL FLORIDA
  
CITY           SKY/WX    TMP DP  RH WIND       PRES   REMARKS
CRYSTAL RIVER  FAIR      73  63  68 SE6       30.06R                  
INVERNESS      FAIR      73  70  88 S5        30.07R FOG              
BROOKSVILLE    FAIR      72  64  76 SE6       30.06S                  
CLEARWATER AIR FAIR      73  63  68 SE6       30.04S                  
ST PETE CLEARW FAIR      77  68  73 MISG        N/A                   
TAMPA INTL     FAIR      73  64  73 SE8       30.06R                  
TAMPA EXEC     FAIR      73  64  73 SE3       30.06S                  
PLANT CITY     FAIR      75  66  73 SE7       30.08R                  
MACDILL AFB    SUNNY     75  65  70 SE9       30.05R                  
PETER O KNIGHT CLOUDY    77  66  69 SE5       30.06R                  
ST PETERSBURG  FAIR      75  66  73 SE9       30.03R                  
SARASOTA       FAIR      75  65  70 E9        30.02S                  
VENICE         FAIR      75  68  78 E8        30.04S                  

STATION/POSITION SKY/WX   TEMP    WIND        PRES    WAVE   SWELL
                          AIR SEA DIR/SP/G            HT/PER HT/PER
                          (F)     (DEG/KT/KT) (MB)    (FT/S) (FT/S)
27.3N   84.2W                 77                N/A     2/ 3
CLEARWATER BEACH           75 81  110/  6/  8 1017.4R
MIDDLE TAMPA BAY           74     140/  9/ 10 1017.5R
VENICE                     74 81  100/  8/ 10 1017.1R

$$
FLZ066-069-070-075>078-162-262-165-265-171400-
SOUTHWEST FLORIDA AND KEYS
  
CITY           SKY/WX    TMP DP  RH WIND       PRES   REMARKS
PUNTA GORDA    FAIR      75  66  73 E6        30.06R                  
FT MYERS       FAIR      76  66  71 E8        30.03S                  
SOUTHWEST INTL FAIR      76  66  71 E7        30.04R                  
NAPLES         FAIR      76  67  73 E8        30.03R                  
MARCO ISLAND   FAIR      75  67  76 NE6       30.04R                  
IMMOKALEE      FAIR      77  68  73 E8        30.02S                  
MARATHON       FAIR      83  72  69 NE14      30.00R                  
KEY WEST NAS   FAIR      83  72  69 NE12      30.00R                  
KEY WEST INTL  FAIR      82  72  71 NE12      30.00R                  

STATION/POSITION SKY/WX   TEMP    WIND        PRES    WAVE   SWELL
                          AIR SEA DIR/SP/G            HT/PER HT/PER
                          (F)     (DEG/KT/KT) (MB)    (FT/S) (FT/S)
NAPLES                     76 81              1016.9R
DRY TORTUGAS               81      90/ 14/ 16 1015.6R
SAND KEY                   81                 1015.7R
SOMBRERO KEY               80                 1015.3R

$$
FLZ067-068-071>074-168-172>174-171400-
SOUTHEAST FLORIDA 
  
CITY           SKY/WX    TMP DP  RH WIND       PRES   REMARKS
W PALM BEACH   FAIR      80  62  54 E7        30.04S                  
BOCA RATON     MOSUNNY   81  64  57 E12       30.03S                  
FT LAUDER-EXEC FAIR      81  64  56 E7        30.03R                  
FT LAUDERDALE  FAIR      80  65  59 E9        30.02R                  
POMPANO BEACH  FAIR      80  65  59 E9        30.03R                  
PEMBROKE PINES FAIR      77  66  68 E9        30.04R                  
OPA LOCKA      FAIR      80  67  64 NE8       30.03R                  
MIAMI          FAIR      81  68  64 NE9       30.02S                  
WEST KENDALL   FAIR      81  68  64 E8        30.02R                  
HOMESTEAD      FAIR      81  68  64 NE8       30.01R                  

STATION/POSITION SKY/WX   TEMP    WIND        PRES    WAVE   SWELL
                          AIR SEA DIR/SP/G            HT/PER HT/PER
                          (F)     (DEG/KT/KT) (MB)    (FT/S) (FT/S)
VIRGINIA KEY               80 81   60/  8/ 11 1016.0R
LAKE WORTH                 78 81              1018.2R
SETTLEMENT POINT           77      90/ 10/ 12 1017.4R

$$